Weather History for South Lake Tahoe, CA

Change the Weather History Date:

Monday, January 13, 2014

  Actual Average Record
Temperature  
Mean Temperature 35 °F 30 °F  
Max Temperature 51 °F 43 °F 57 °F (1996)
Min Temperature 19 °F 16 °F -14 °F (2013)
Degree Days  
Heating Degree Days 30 35  
Month to date heating degree days 372 462  
Since 1 July heating degree days 3330 3645  
Cooling Degree Days 0 0  
Month to date cooling degree days 0 0  
Year to date cooling degree days 0 0  
Moisture  
Dew Point 19 °F    
Average Humidity 58    
Maximum Humidity 84    
Minimum Humidity 32    
Precipitation  
Precipitation 0.00 in - 3.02 in (1980)
Month to date precipitation 0.17  
Year to date precipitation 0.17  
Sea Level Pressure  
Sea Level Pressure 30.58 in    
Wind  
Wind Speed 3 mph (SSE)    
Max Wind Speed 9 mph    
Max Gust Speed 14 mph    
Visibility 10 miles    
Events      
T = Trace of Precipitation, MM = Missing Value Source: NWS Daily Summary

Daily Weather History Graph

Daily Weather History Graph

Search for Another Location

Airport:

Trip Planner

Search our weather history database for the weather conditions in past years. The results will help you decide how hot, cold, wet, or windy it might be!

Date:

Astronomy

Jan. 13, 2014 Rise Set
Actual Time 7:17 AM PST 5:00 PM PST
Civil Twilight 6:48 AM PST 5:29 PM PST
Nautical Twilight 6:15 AM PST 6:02 PM PST
Astronomical Twilight 5:43 AM PST 6:34 PM PST
Moon 3:19 PM PST (1/13) 5:10 AM PST (1/13)
Length of Visible Light 10h 41m
Length of Day
9h 42m
Waxing Gibbous, 95% of the Moon is Illuminated
Jan 13
Waxing Gibbous
Jan 15
Full
Jan 23
Last Quarter
Jan 30
New
Feb 6
First Quarter

Hourly Weather History & Observations

Time (PST) Temp. Windchill Dew Point Humidity Pressure Visibility Wind Dir Wind Speed Gust Speed Precip Events Conditions
12:53 AM 24.1 °F 15.2 °F 17.1 °F 75% 30.49 in 10.0 mi South 8.1 mph - N/A   Clear
1:53 AM 25.0 °F - 18.0 °F 75% 30.47 in 10.0 mi Calm Calm - N/A   Clear
2:53 AM 24.1 °F 19.7 °F 17.1 °F 75% 30.49 in 10.0 mi South 3.5 mph - N/A   Clear
3:53 AM 21.0 °F 16.2 °F 16.0 °F 81% 30.52 in 10.0 mi Variable 3.5 mph - N/A   Clear
4:53 AM 21.0 °F 13.4 °F 15.1 °F 78% 30.54 in 10.0 mi South 5.8 mph - N/A   Clear
5:53 AM 21.0 °F - 15.1 °F 78% 30.58 in 10.0 mi Calm Calm - N/A   Clear
6:53 AM 19.9 °F 13.4 °F 15.1 °F 81% 30.60 in 10.0 mi SSW 4.6 mph - N/A   Clear
7:53 AM 19.9 °F 13.4 °F 14.0 °F 78% 30.60 in 10.0 mi South 4.6 mph - N/A   Clear
8:53 AM 26.1 °F - 19.0 °F 75% 30.63 in 10.0 mi Calm Calm - N/A   Clear
9:53 AM 34.0 °F 31.0 °F 23.0 °F 64% 30.60 in 10.0 mi South 3.5 mph - N/A   Clear
10:53 AM 45.0 °F - 19.9 °F 37% 30.57 in 10.0 mi Calm Calm - N/A   Clear
11:53 AM 46.9 °F - 21.9 °F 37% 30.55 in 10.0 mi NNE 5.8 mph - N/A   Clear
12:53 PM 46.9 °F - 24.1 °F 41% 30.53 in 10.0 mi NE 4.6 mph - N/A   Clear
1:53 PM 48.9 °F - 24.1 °F 38% 30.52 in 10.0 mi NE 6.9 mph - N/A   Clear
2:53 PM 50.0 °F - 21.9 °F 33% 30.52 in 10.0 mi Variable 3.5 mph - N/A   Clear
3:53 PM 44.1 °F 41.5 °F 21.9 °F 42% 30.56 in 10.0 mi North 4.6 mph - N/A   Clear
4:53 PM 37.0 °F - 23.0 °F 57% 30.60 in 10.0 mi Calm Calm - N/A   Clear
5:53 PM 32.0 °F - 21.9 °F 66% 30.63 in 10.0 mi Calm Calm - N/A   Clear
6:53 PM 30.0 °F - 21.0 °F 69% 30.66 in 10.0 mi Calm Calm - N/A   Clear
7:53 PM 28.9 °F - 19.0 °F 67% 30.67 in 10.0 mi Calm Calm - N/A   Clear
8:53 PM 28.0 °F - 19.0 °F 69% 30.66 in 9.0 mi Calm Calm - N/A   Clear
9:53 PM 27.0 °F - 18.0 °F 69% 30.64 in 10.0 mi Calm Calm - N/A   Clear
10:53 PM 25.0 °F - 17.1 °F 72% 30.61 in 10.0 mi Calm Calm - N/A   Clear
11:53 PM 24.1 °F - 17.1 °F 75% 30.61 in 10.0 mi Calm Calm - N/A   Clear